Location: Aldenham
(51.6667°N, 0.3500°W)
Time: 06:15:38
(UTC+00:00)

Altair - Pass Details

Date: 21 February 2026
Orbit: 1502 x 1682 km, 47.2° (Epoch: 5 March)

Event Time Altitude Azimuth Distance (km) Brightness Sun altitude
Rises 05:47:55 0° 253° (WSW) 4,638 - -12.4°
Reaches altitude 10° 05:50:56 10° 251° (WSW) 3,666 - -12.0°
Exits shadow 05:51:16 11° 250° (WSW) 3,560 8.8 -11.9°
Maximum altitude 06:00:02 67° 172° (S) 1,652 7.7 -10.6°
Drops below altitude 10° 06:09:27 10° 92° (E) 3,782 11.3 -9.1°
Sets 06:12:36 0° 90° (E) 4,792 12.5 -8.6°
